Flag for China Weather past 2 weeks in Lanzhou, Gansu, China

Now
73 °F

Scattered clouds.


Feels Like: 76 °F
Forecast: 46 / 76 °F
Wind: 6 mph from Northeast

Location: Lanzhou / Zhongchuan

Current Time: May 26, 2015 at 6:36:33 PM

Latest Report: May 26, 2015 at 6:00 PM


Visibility: N/A

Pressure: 29.89 "Hg

Humidity: 29%

Dew point: 39 °F

Location of LanzhouLocation

Historic Weather in Lanzhou — Graph

°F

Lanzhou temperature yesterday

Maximum temperature yesterday: 70 °F (at 5:00 PM)
Minimum temperature yesterday: 54 °F (at 11:00 PM)
Average temperature yesterday: 63 °F

Past Weeks' High & Low Weather Summary

 TemperatureHumidityPressure
High81 °F (May 13, 3:00 PM)100% (May 22, 4:00 AM)30.27 "Hg (May 22, 4:00 AM)
Low34 °F (May 12, 5:00 AM)12% (May 12, 4:00 PM)29.77 "Hg (May 12, 6:00 PM)
Average60 °F48%30.00 "Hg
* Reported May 11 5:00 PM — May 26 5:00 PM, Lanzhou, Weather by CustomWeather, © 2015

Note: Actual official high and low records may vary slightly from our data, if they occured in-between our weather recording intervals... More about our weather records

Advertising

Lanzhou weather history for previous 24 hours

 ConditionsComfort  
Time TempWeatherWind HumidityBarometerVisibility
5:00 PM
Tue, May 26
68 °FSprinkles. Scattered clouds.20 mph43%29.92 "HgN/A
4:00 PM72 °FScattered clouds.15 mph36%29.92 "HgN/A
3:00 PM75 °FScattered clouds.3 mph34%29.89 "HgN/A
2:00 PM75 °FPassing clouds.3 mph36%29.92 "HgN/A
1:00 PM72 °FPassing clouds.3 mph41%29.92 "HgN/A
12:00 PM68 °FSunny.3 mph43%29.95 "Hg10 mi
11:00 AM66 °FSunny.3 mph49%29.95 "Hg10 mi
10:00 AM63 °FPassing clouds.6 mph59%29.95 "HgN/A
9:00 AM59 °FPassing clouds.3 mph68%29.98 "HgN/A
8:00 AM55 °FSunny.1 mph72%29.95 "Hg10 mi
7:00 AM48 °FSunny.3 mph87%29.95 "Hg10 mi
6:00 AM45 °FClear.3 mph93%29.95 "Hg10 mi
5:00 AM45 °FClear.3 mph93%29.92 "Hg10 mi
4:00 AM46 °FClear.3 mph87%29.92 "Hg10 mi
3:00 AM48 °FClear.1 mph82%29.95 "Hg10 mi
2:00 AM48 °FPassing clouds.3 mph87%29.95 "HgN/A
1:00 AM52 °FPassing clouds.3 mph77%29.98 "HgN/A
12:00 AM52 °FClear.1 mph82%29.98 "Hg10 mi
11:00 PM
Mon, May 25
54 °FClear.1 mph77%29.98 "Hg10 mi
10:00 PM57 °FClear.3 mph67%29.95 "Hg10 mi
9:00 PM61 °FSunny.3 mph59%29.92 "Hg10 mi
8:00 PM63 °FPassing clouds.3 mph56%29.92 "HgN/A
7:00 PM66 °FPassing clouds.8 mph49%29.89 "HgN/A
6:00 PM68 °FPassing clouds.10 mph49%29.86 "HgN/A
Weather by CustomWeather, © 2015

See weather overviewHow to use our weather pages